Flag for Germany Weather past 2 weeks in Gorleben, Lower Saxony, Germany

Now
86 °F

Overcast.


Feels Like: 84 °F
Forecast: 67 / 95 °F
Wind: 3 mph from Southeast

Location: Marnitz

Current Time: Jul 3, 2015 at 1:33:48 PM

Latest Report: Jul 3, 2015 at 1:00 PM


Visibility: 28 mi

Pressure: 30.22 "Hg

Humidity: 35%

Dew point: 55 °F

Location of GorlebenLocation

Historic Weather in Gorleben — Graph

°F

Gorleben temperature yesterday

Maximum temperature yesterday: 86 °F (at 5:00 PM)
Minimum temperature yesterday: 56 °F (at 5:00 AM)
Average temperature yesterday: 74 °F

Past Weeks' High & Low Weather Summary

 TemperatureHumidityPressure
High86 °F (Jul 2, 5:00 PM)100% (Jun 23, 1:00 AM)30.27 "Hg (Jun 23, 1:00 AM)
Low46 °F (Jun 21, 5:00 AM)30% (Jul 2, 2:00 PM)29.61 "Hg (Jun 23, 2:00 AM)
Average62 °F73%30.03 "Hg
* Reported Jun 18 12:00 Noon — Jul 3 12:00 Noon, Gorleben, Weather by CustomWeather, © 2015

Note: Actual official high and low records may vary slightly from our data, if they occured in-between our weather recording intervals... More about our weather records

Advertising

Gorleben weather history for previous 24 hours

 ConditionsComfort  
Time TempWeatherWind HumidityBarometerVisibility
12:00 PM
Fri, Jul 3
84 °FOvercast.2 mph40%30.23 "Hg31 mi
11:00 AM82 °FOvercast.2 mph43%30.26 "Hg31 mi
10:00 AM79 °FSunny.2 mph45%30.27 "Hg22 mi
9:00 AM76 °FSunny.2 mph48%30.26 "Hg28 mi
8:00 AM73 °FPassing clouds.2 mph51%30.25 "Hg22 mi
7:00 AM70 °FPassing clouds.1 mph55%30.26 "Hg25 mi
6:00 AM63 °FSunny.2 mph68%30.25 "Hg22 mi
5:00 AM66 °FPassing clouds.3 mph58%30.24 "Hg40 mi
4:00 AM67 °FPassing clouds.3 mph56%30.24 "Hg43 mi
3:00 AM69 °FClear.5 mph50%30.24 "Hg43 mi
2:00 AM70 °FClear.5 mph50%30.23 "Hg43 mi
1:00 AM69 °FPassing clouds.5 mph52%30.23 "Hg43 mi
12:00 AM68 °FPassing clouds.2 mph59%30.23 "Hg43 mi
11:00 PM
Thu, Jul 2
69 °FClear.2 mph60%30.23 "Hg37 mi
10:00 PM74 °FPassing clouds.3 mph50%30.22 "Hg40 mi
9:00 PM79 °FSunny.3 mph43%30.21 "Hg43 mi
8:00 PM83 °FPassing clouds.5 mph35%30.21 "Hg43 mi
7:00 PM85 °FPassing clouds.5 mph34%30.20 "Hg43 mi
6:00 PM86 °FPassing clouds.6 mph32%30.21 "Hg34 mi
5:00 PM86 °FSunny.5 mph31%30.21 "Hg31 mi
4:00 PM85 °FPassing clouds.6 mph30%30.21 "Hg28 mi
3:00 PM85 °FSunny.6 mph31%30.22 "Hg25 mi
2:00 PM85 °FSunny.7 mph30%30.23 "Hg28 mi
1:00 PM83 °FSunny.6 mph32%30.24 "Hg31 mi
Weather by CustomWeather, © 2015

See weather overviewHow to use our weather pages